Notices

What's New in latest Release from April 7th, 2021:

- Updated Glossary, including Speed of Maximum Gust, and Total Hourly Precipitation

- Updated national and regional climate services offices contacts and prices information

- Addition of station inventory lists for 1981-2010, 1971-2000, and 1961-1990 Normals.

If you haven't already, please take our survey and provide feedback about our website: https://eccc.sondage-survey.ca/f/LanguageSelection.aspx?s=442ca660-fcf1-47c0-95a9-59707d6fd709

Hourly Data Report for January 27, 2020

SATURNA ISLAND CS
BRITISH COLUMBIA
Current Station Operator: ECCC - MSC

48°47'02.067" N
123°02'41.082" W
24.40 m
1017101
71473
WEZ

Download Data

Hourly Data (January 2020)
Hourly Data Report for January 27, 2020
TIME
LST
Temp Definition
°C
Dew Point Definition
°C
Rel Hum Definition
%
Precip. Amount Definition
mm

Wind Dir Definition
10's deg

Wind Spd Definition
km/h
Visibility Definition
km
Stn Press Definition
kPa
Hmdx Definition


Wind Chill Definition


Weather Definition


00:00 7.1 5.8 91 0.0 21 31   101.27     LegendNANA
01:00 7.1 5.9 92 0.0 22 28   101.31     LegendNANA
02:00 7.4 5.5 88 0.0 22 28   101.39     LegendNANA
03:00 7.1 5.4 89 0.0 22 28   101.47     LegendNANA
04:00 7.6 5.2 85 0.0 23 27   101.50     LegendNANA
05:00 7.5 5.0 84 0.0 22 28   101.53     LegendNANA
06:00 7.0 5.0 87 0.0 21 34   101.59     LegendNANA
07:00 6.9 4.8 87 0.0 20 36   101.61     LegendNANA
08:00 6.9 4.9 87 0.0 20 34   101.65     LegendNANA
09:00 7.4 5.7 89 0.0 15 28   101.73     LegendNANA
10:00 7.5 5.3 85 0.0 16 25   101.78     LegendNANA
11:00 8.5 5.0 79 0.0 15 14   101.75     LegendNANA
12:00 8.6 4.9 77 0.0 6 5   101.66     LegendNANA
13:00 8.7 5.0 78 0.0 17 14   101.59     LegendNANA
14:00 8.9 4.9 76 0.0 12 13   101.43     LegendNANA
15:00 9.0 5.0 76 0.0 11 27   101.30     LegendNANA
16:00 9.0 4.4 73 0.0 11 25   101.16     LegendNANA
17:00 8.5 4.3 75 0.4 13 33   101.07     LegendNANA
18:00 7.0 4.9 87 2.0 13 36   101.00     LegendNANA
19:00 6.7 4.9 88 1.4 10 38   100.83     LegendNANA
20:00 6.9 4.3 83 0.0 10 34   100.83     LegendNANA
21:00 6.1 5.0 93 2.0 7 32   100.71     LegendNANA
22:00 6.2 5.2 93 0.4 8 33   100.68     LegendNANA
23:00 6.5 5.6 94 0.2 9 23   100.69     LegendNANA

Notes on Data Quality.

Legend

  • E = Estimated
  • M = Missing
  • NA = Not Available*
  • [empty] = Indicates an unobserved value
Date modified: